QPF
0.00 0.00 0.00 0.00 0.00 0.00 0.00 0.00 0.00 0.00 0.00 0.00 0.00 0.00 0.00 0.00 0.00 0.00 0.00 0.00 0.00 0.00 0.00 0.00 0.00 0.00 0.00 0.00 0.00 0.00 0.00 0.00 0.00 0.00 0.00 0.00 0.00 0.00 0.00 0.00 0.00 0.00 0.00 0.00 0.00 0.00 0.00 0.00 0.00 0.00 0.00 0.00
0.00 0.00 0.00 0.00 0.00 0.00 0.00 0.00 0.00 0.00 0.00 0.00 0.00 0.00 0.00 0.00 0.00 0.00 0.00 0.00 0.00 0.00 0.00 0.00 0.00 0.00 0.00 0.00 0.00 0.00 0.00 0.00 0.00 0.00 0.00 0.00 0.00 0.00 0.00 0.00 0.00 0.00 0.00 0.00 0.00 0.00 0.00 0.00 0.00 0.00 0.00 0.00
0.00 0.00 0.00 0.00 0.00 0.00 0.00 0.00 0.00 0.00 0.00 0.00 0.00 0.00 0.00 0.00 0.00 0.00 0.00 0.00 0.00 0.00 0.00 0.00 0.00 0.00 0.00 0.00 0.00 0.00 0.00 0.00 0.00 0.00 0.00 0.00 0.00 0.00 0.00 0.00 0.00 0.00 0.00 0.00 0.00 0.00 0.00 0.00 0.00 0.00 0.00 0.00
0.00 0.00 0.00 0.00 0.00 0.00 0.00 0.00 0.00 0.00 0.00 0.00 0.00 0.00 0.00 0.00 0.00 0.00 0.00 0.00 0.00 0.00 0.00 0.00 0.00 0.00 0.00 0.00 0.00 0.00 0.00 0.00 0.00 0.00 0.00 0.00 0.00 0.00 0.00 0.00 0.00 0.00 0.00 0.00 0.00 0.00 0.00 0.00 0.00 0.00 0.00 0.00
0.00 0.00 0.00 0.00 0.00 0.00 0.00 0.00 0.00 0.00 0.00 0.00 0.00 0.00 0.00 0.00 0.00 0.00 0.00 0.00 0.00 0.00 0.00 0.00 0.00 0.00 0.00 0.00 0.00 0.00 0.00 0.00 0.00 0.00 0.00 0.00 0.00 0.00 0.00 0.00 0.00 0.00 0.00 0.00 0.00 0.00 0.00 0.00 0.00 0.00 0.00 0.00
0.00 0.00 0.00 0.00 0.00 0.00 0.00 0.00 0.00 0.00 0.00 0.00 0.00 0.00 0.00 0.00 0.00 0.00 0.00 0.00 0.00 0.00 0.00 0.00 0.00 0.00 0.00 0.00 0.00 0.00 0.00 0.00 0.00 0.00 0.00 0.00 0.00 0.00 0.00 0.00 0.00 0.00 0.00 0.00 0.00 0.00 0.00 0.00 0.00 0.00 0.00 0.00
0.00 0.00 0.00 0.00 0.00 0.00 0.00 0.00 0.00 0.00 0.00 0.00 0.00 0.00 0.00 0.00 0.00 0.00 0.00 0.00 0.00 0.00 0.00 0.00 0.00 0.00 0.00 0.00 0.00 0.00 0.00 0.00 0.00 0.00 0.00 0.00 0.00 0.00 0.00 0.00 0.00 0.00 0.00 0.00 0.00 0.00 0.00 0.00 0.00 0.00 0.00 0.00
0.00 0.00 0.00 0.00 0.00 0.00 0.00 0.00 0.00 0.00 0.00 0.00 0.00 0.00 0.00 0.00 0.00 0.00 0.00 0.00 0.00 0.00 0.00 0.00 0.00 0.00 0.00 0.00 0.00 0.00 0.00 0.00 0.00 0.00 0.00 0.00 0.00 0.00 0.00 0.00 0.00 0.00 0.00 0.00 0.00 0.00 0.00 0.00 0.00 0.00 0.00 0.00
0.00 0.00 0.00 0.00 0.00 0.00 0.00 0.00 0.00 0.00 0.00 0.00 0.00 0.00 0.00 0.00 0.00 0.00 0.00 0.00 0.00 0.00 0.00 0.00 0.00 0.00 0.00 0.00 0.00 0.00 0.00 0.00 0.00 0.00 0.00 0.00 0.00 0.00 0.00 0.00 0.00 0.00 0.00 0.00 0.00 0.00 0.00 0.00 0.00 0.00 0.00 0.00
0.00 0.00 0.00 0.00 0.00 0.00 0.00 0.00 0.00 0.00 0.00 0.00 0.00 0.00 0.00 0.00 0.00 0.00 0.00 0.00 0.00 0.00 0.00 0.00 0.00 0.00 0.00 0.00 0.00 0.00 0.00 0.00 0.00 0.00 0.00 0.00 0.00 0.00 0.00 0.00 0.00 0.00 0.00 0.00 0.00 0.00 0.00 0.00 0.00 0.00 0.00 0.00
0.00 0.00 0.00 0.00 0.00 0.00 0.00 0.00 0.00 0.00 0.00 0.00 0.00 0.00 0.00 0.00 0.00 0.00 0.00 0.00 0.00 0.00 0.00 0.00 0.00 0.00 0.00 0.00 0.00 0.00 0.00 0.00 0.00 0.00 0.00 0.00 0.00 0.00 0.00 0.00 0.00 0.00 0.00 0.00 0.00 0.00 0.00 0.00 0.00 0.00 0.00 0.00
0.00 0.00 0.00 0.00 0.00 0.00 0.00 0.00 0.00 0.00 0.00 0.00 0.00 0.00 0.00 0.00 0.00 0.00 0.00 0.00 0.00 0.00 0.00 0.00 0.00 0.00 0.00 0.00 0.00 0.00 0.00 0.00 0.00 0.00 0.00 0.00 0.00 0.00 0.00 0.00 0.00 0.00 0.00 0.00 0.00 0.00 0.00 0.00 0.00 0.00 0.00 0.00
0.00 0.00 0.00 0.00 0.00 0.00 0.00 0.00 0.00 0.00 0.00 0.00 0.00 0.00 0.00 0.00 0.00 0.00 0.00 0.00 0.00 0.00 0.00 0.00 0.00 0.00 0.00 0.00 0.00 0.00 0.00 0.00 0.00 0.00 0.00 0.00 0.00 0.00 0.00 0.00 0.00 0.00 0.00 0.00 0.00 0.00 0.00 0.00 0.00 0.00 0.00 0.00
0.00 0.00 0.00 0.00 0.00 0.00 0.00 0.00 0.00 0.00 0.00 0.00 0.00 0.00 0.00 0.00 0.00 0.00 0.00 0.00 0.00 0.00 0.00 0.00 0.00 0.00 0.00 0.00 0.00 0.00 0.00 0.00 0.00 0.00 0.00 0.00 0.00 0.00 0.00 0.00 0.00 0.00 0.00 0.00 0.00 0.00 0.00 0.00 0.00 0.00 0.00 0.00
0.00 0.00 0.00 0.00 0.00 0.00 0.00 0.00 0.00 0.00 0.00 0.00 0.00 0.00 0.00 0.00 0.00 0.00 0.00 0.00 0.00 0.00 0.00 0.00 0.00 0.00 0.00 0.00 0.00 0.00 0.00 0.00 0.00 0.00 0.00 0.00 0.00 0.00 0.00 0.00 0.00 0.00 0.00 0.00 0.00 0.00 0.00 0.00 0.00 0.00 0.00 0.00
0.00 0.00 0.00 0.00 0.00 0.00 0.00 0.00 0.00 0.00 0.00 0.00 0.00 0.00 0.00 0.00 0.00 0.00 0.00 0.00 0.00 0.00 0.00 0.00 0.00 0.00 0.00 0.00 0.00 0.00 0.00 0.00 0.00 0.00 0.00 0.00 0.00 0.00 0.00 0.00 0.00 0.00 0.00 0.00 0.00 0.00 0.00 0.00 0.00 0.00 0.00 0.00
0.00 0.00 0.00 0.00 0.00 0.00 0.00 0.00 0.00 0.00 0.00 0.00 0.00 0.00 0.00 0.00 0.00 0.00 0.00 0.00 0.00 0.00 0.00 0.00 0.00 0.00 0.00 0.00 0.00 0.00 0.00 0.00 0.00 0.00 0.00 0.00 0.00 0.00 0.00 0.00 0.00 0.00 0.00 0.00 0.00 0.00 0.00 0.00 0.00 0.00 0.00 0.00
0.00 0.00 0.00 0.00 0.00 0.00 0.00 0.00 0.00 0.00 0.00 0.00 0.00 0.00 0.00 0.00 0.00 0.00 0.00 0.00 0.00 0.00 0.00 0.00 0.00 0.00 0.00 0.00 0.00 0.00 0.00 0.00 0.00 0.00 0.00 0.00 0.00 0.00 0.00 0.00 0.00 0.00 0.00 0.00 0.00 0.00 0.00 0.00 0.00 0.00 0.00 0.00
0.00 0.00 0.00 0.00 0.00 0.00 0.00 0.00 0.00 0.00 0.00 0.00 0.00 0.00 0.00 0.00 0.00 0.00 0.00 0.00 0.00 0.00 0.00 0.00 0.00 0.00 0.00 0.00 0.00 0.00 0.00 0.00 0.00 0.00 0.00 0.00 0.00 0.00 0.00 0.00 0.00 0.00 0.00 0.00 0.00 0.00 0.00 0.00 0.00 0.00 0.00 0.00
0.00 0.00 0.00 0.00 0.00 0.00 0.00 0.00 0.00 0.00 0.00 0.00 0.00 0.00 0.00 0.00 0.00 0.00 0.00 0.00 0.00 0.00 0.00 0.00 0.00 0.00 0.00 0.00 0.00 0.00 0.00 0.00 0.00 0.00 0.00 0.00 0.00 0.00 0.00 0.00 0.00 0.00 0.00 0.00 0.00 0.00 0.00 0.00 0.00 0.00 0.00 0.00
0.00 0.00 0.00 0.00 0.00 0.00 0.00 0.00 0.00 0.00 0.00 0.00 0.00 0.00 0.00 0.00 0.00 0.00 0.00 0.00 0.00 0.00 0.00 0.00 0.00 0.00 0.00 0.00 0.00 0.00 0.00 0.00 0.00 0.00 0.00 0.00 0.00 0.00 0.00 0.00 0.00 0.00 0.00 0.00 0.00 0.00 0.00 0.00 0.00 0.00 0.00 0.00
0.00 0.00 0.00 0.00 0.00 0.00 0.00 0.00 0.00 0.00 0.00 0.00 0.00 0.00 0.00 0.00 0.00 0.00 0.00 0.00 0.00 0.00 0.00 0.00 0.00 0.00 0.00 0.00 0.00 0.00 0.00 0.00 0.00 0.00 0.00 0.00 0.00 0.00 0.00 0.00 0.00 0.00 0.00 0.00 0.00 0.00 0.00 0.00 0.00 0.00 0.00 0.00
0.00 0.00 0.00 0.00 0.00 0.00 0.00 0.00 0.00 0.00 0.00 0.00 0.00 0.00 0.00 0.00 0.00 0.00 0.00 0.00 0.00 0.00 0.00 0.00 0.00 0.00 0.00 0.00 0.00 0.00 0.00 0.00 0.00 0.00 0.00 0.00 0.00 0.00 0.00 0.00 0.00 0.00 0.00 0.00 0.00 0.00 0.00 0.00 0.00 0.00 0.00 0.00
0.00 0.00 0.00 0.00 0.00 0.00 0.00 0.00 0.00 0.01 0.00 0.00 0.00 0.00 0.00 0.00 0.00 0.00 0.00 0.00 0.00 0.00 0.00 0.00 0.00 0.00 0.00 0.00 0.00 0.00 0.00 0.00 0.00 0.00 0.00 0.00 0.00 0.00 0.00 0.00 0.00 0.00 0.00 0.00 0.00 0.00 0.00 0.00 0.00 0.00 0.00 0.00
0.00 0.00 0.00 0.00 0.00 0.00 0.00 0.01 0.01 0.00 0.01 0.01 0.00 0.00 0.00 0.00 0.00 0.00 0.00 0.00 0.00 0.00 0.00 0.00 0.00 0.00 0.00 0.00 0.00 0.00 0.00 0.00 0.00 0.00 0.00 0.00 0.00 0.00 0.00 0.00 0.00 0.00 0.00 0.00 0.00 0.00 0.00 0.00 0.00 0.00 0.00 0.00
0.00 0.00 0.00 0.00 0.00 0.00 0.01 0.02 0.02 0.01 0.00 0.02 0.01 0.02 0.01 0.01 0.01 0.01 0.01 0.00 0.01 0.01 0.00 0.00 0.00 0.00 0.00 0.00 0.00 0.00 0.00 0.00 0.00 0.00 0.00 0.00 0.00 0.00 0.00 0.00 0.00 0.00 0.00 0.00 0.00 0.00 0.00 0.00 0.00 0.00 0.00 0.00
0.00 0.00 0.00 0.00 0.00 0.00 0.00 0.01 0.01 0.03 0.02 0.02 0.03 0.02 0.01 0.02 0.02 0.02 0.02 0.02 0.04 0.02 0.03 0.06 0.00 0.00 0.00 0.00 0.00 0.00 0.00 0.00 0.00 0.00 0.00 0.00 0.00 0.00 0.00 0.00 0.00 0.00 0.00 0.00 0.00 0.00 0.00 0.00 0.00 0.00 0.00 0.00
0.00 0.00 0.00 0.00 0.00 0.00 0.00 0.00 0.00 0.01 0.02 0.01 0.02 0.03 0.04 0.04 0.08 0.11 0.06 0.05 0.02 0.03 0.03 0.02 0.02 0.02 0.00 0.00 0.00 0.00 0.00 0.00 0.00 0.00 0.00 0.00 0.00 0.00 0.00 0.00 0.00 0.00 0.00 0.00 0.00 0.00 0.00 0.00 0.00 0.00 0.00 0.00
0.00 0.00 0.00 0.00 0.00 0.00 0.00 0.00 0.00 0.00 0.01 0.03 0.07 0.04 0.11 0.08 0.05 0.09 0.06 0.03 0.04 0.03 0.10 0.04 0.02 0.04 0.00 0.00 0.00 0.00 0.00 0.00 0.00 0.00 0.00 0.00 0.00 0.00 0.00 0.00 0.00 0.00 0.00 0.00 0.00 0.00 0.00 0.00 0.00 0.00 0.00 0.00
0.00 0.00 0.00 0.00 0.00 0.00 0.00 0.00 0.00 0.00 0.00 0.00 0.00 0.01 0.01 0.02 0.02 0.03 0.03 0.04 0.03 0.02 0.01 0.02 0.05 0.03 0.00 0.00 0.01 0.00 0.01 0.00 0.00 0.00 0.00 0.00 0.00 0.00 0.00 0.00 0.00 0.00 0.00 0.00 0.00 0.00 0.00 0.00 0.00 0.00 0.00 0.00
0.00 0.00 0.00 0.00 0.00 0.00 0.00 0.00 0.00 0.00 0.00 0.00 0.00 0.00 0.00 0.00 0.01 0.01 0.04 0.01 0.02 0.04 0.04 0.04 0.05 0.03 0.02 0.01 0.00 0.01 0.00 0.00 0.00 0.00 0.00 0.00 0.00 0.00 0.00 0.00 0.00 0.00 0.00 0.00 0.00 0.00 0.00 0.00 0.00 0.00 0.00 0.00
MSLP
1013.11 1013.15 1013.19 1013.27 1013.27 1013.35 1013.55 1013.67 1013.83 1013.87 1013.91 1014.11 1014.23 1014.43 1014.67 1014.87 1015.07 1015.35 1015.63 1015.87 1016.03 1016.19 1016.39 1016.59 1016.75 1016.79 1016.71 1016.71 1016.83 1016.71 1016.87 1017.07 1017.31 1017.55 1017.75 1017.83 1017.99 1018.11 1018.19 1018.43 1018.87 1019.47 1019.75 1020.15 1020.63 1020.95 1021.39 1021.79 1021.91 1021.91 1021.75 1021.31
1013.23 1013.23 1013.27 1013.35 1013.31 1013.31 1013.47 1013.67 1013.75 1013.87 1013.87 1013.95 1014.15 1014.31 1014.51 1014.75 1014.95 1015.19 1015.55 1015.79 1015.95 1016.03 1016.23 1016.47 1016.67 1016.75 1016.67 1016.79 1016.79 1016.91 1016.87 1017.03 1017.27 1017.51 1017.71 1017.87 1017.95 1018.11 1018.31 1018.59 1019.03 1019.43 1019.75 1020.31 1020.79 1021.11 1021.51 1021.87 1021.99 1021.95 1021.83 1021.43
1013.15 1013.31 1013.35 1013.39 1013.43 1013.39 1013.51 1013.71 1013.79 1013.87 1013.87 1013.95 1014.03 1014.23 1014.43 1014.71 1014.87 1015.11 1015.27 1015.55 1015.79 1015.95 1016.03 1016.35 1016.55 1016.71 1016.59 1016.67 1016.71 1016.91 1016.91 1017.07 1017.27 1017.55 1017.83 1017.99 1018.23 1018.35 1018.55 1018.75 1019.23 1019.55 1019.83 1020.11 1020.63 1020.99 1021.51 1021.95 1022.03 1021.99 1021.83 1021.51
1012.67 1013.03 1013.27 1013.39 1013.47 1013.51 1013.59 1013.75 1013.87 1013.95 1013.99 1014.07 1014.11 1014.23 1014.47 1014.71 1014.87 1015.07 1015.35 1015.55 1015.79 1015.91 1015.87 1016.07 1016.23 1016.63 1016.51 1016.55 1016.67 1016.75 1016.91 1017.19 1017.39 1017.71 1017.95 1018.19 1018.43 1018.47 1018.67 1018.79 1019.11 1019.43 1019.79 1020.11 1020.47 1020.99 1021.55 1021.95 1022.07 1021.95 1021.55 1021.59
1012.27 1012.43 1012.91 1013.23 1013.39 1013.47 1013.59 1013.71 1013.91 1014.03 1014.11 1014.19 1014.19 1014.35 1014.47 1014.71 1014.87 1015.07 1015.27 1015.55 1015.63 1015.79 1015.87 1015.91 1016.15 1016.39 1016.51 1016.35 1016.67 1016.71 1016.91 1017.15 1017.43 1017.63 1017.91 1018.11 1018.35 1018.43 1018.59 1018.95 1019.39 1019.59 1020.07 1020.35 1020.59 1021.07 1021.63 1021.99 1022.03 1021.59 1021.51 1021.59
1012.27 1012.31 1012.71 1012.87 1013.03 1013.19 1013.31 1013.55 1013.79 1013.95 1014.03 1014.11 1014.11 1014.23 1014.43 1014.47 1014.67 1014.83 1014.95 1015.07 1015.39 1015.51 1015.67 1015.83 1016.07 1016.27 1016.47 1016.31 1016.55 1016.79 1016.95 1017.07 1017.31 1017.59 1017.83 1018.07 1018.27 1018.47 1018.75 1019.11 1019.43 1019.87 1020.27 1020.51 1020.79 1021.11 1021.75 1022.07 1021.79 1021.59 1021.79 1021.83
1012.43 1012.35 1012.39 1012.67 1012.79 1012.99 1013.15 1013.27 1013.59 1013.75 1013.91 1013.87 1013.99 1013.95 1014.15 1014.27 1014.27 1014.43 1014.47 1014.75 1014.95 1015.15 1015.39 1015.63 1015.95 1016.19 1016.39 1016.15 1016.23 1016.59 1016.83 1017.03 1017.27 1017.43 1017.67 1017.95 1018.15 1018.43 1018.75 1019.07 1019.51 1019.99 1020.43 1020.63 1020.87 1021.27 1021.83 1021.87 1021.63 1021.71 1021.87 1021.87
1012.39 1012.47 1012.35 1012.39 1012.55 1012.59 1012.79 1012.99 1013.23 1013.55 1013.63 1013.79 1013.75 1013.75 1013.87 1013.95 1013.91 1014.03 1014.19 1014.39 1014.83 1015.15 1015.27 1015.51 1015.87 1016.11 1016.27 1016.43 1016.35 1016.47 1016.75 1016.99 1017.31 1017.55 1017.63 1017.83 1018.07 1018.35 1018.75 1019.11 1019.51 1019.83 1020.31 1020.63 1020.87 1021.35 1021.67 1021.63 1021.55 1021.71 1021.79 1021.75
1012.47 1012.43 1012.43 1012.35 1012.35 1012.39 1012.39 1012.63 1012.83 1012.99 1013.27 1013.47 1013.55 1013.51 1013.59 1013.59 1013.67 1013.83 1013.95 1014.07 1014.55 1014.83 1014.87 1015.11 1015.55 1015.91 1016.15 1016.27 1016.35 1016.43 1016.47 1016.79 1017.11 1017.43 1017.59 1017.75 1017.95 1018.23 1018.55 1019.03 1019.27 1019.67 1020.07 1020.43 1020.83 1021.23 1021.27 1021.23 1021.39 1021.59 1021.55 1021.51
1012.63 1012.55 1012.47 1012.39 1012.27 1012.27 1012.23 1012.31 1012.51 1012.59 1012.79 1012.99 1013.19 1013.27 1013.19 1013.31 1013.55 1013.63 1013.71 1013.79 1014.07 1014.55 1014.55 1014.71 1015.11 1015.43 1015.71 1015.95 1016.11 1016.27 1016.47 1016.51 1016.63 1017.03 1017.39 1017.59 1017.75 1018.07 1018.39 1018.59 1019.19 1019.55 1019.79 1020.15 1020.55 1020.71 1020.79 1020.87 1021.15 1021.27 1021.35 1021.35
1012.75 1012.63 1012.51 1012.39 1012.27 1012.23 1012.23 1012.23 1012.31 1012.43 1012.43 1012.51 1012.67 1012.99 1013.07 1012.99 1013.15 1013.39 1013.51 1013.55 1013.87 1014.31 1014.27 1014.31 1014.63 1014.95 1015.23 1015.51 1015.75 1015.95 1016.19 1016.39 1016.43 1016.51 1016.79 1017.19 1017.47 1017.99 1018.23 1018.59 1018.99 1019.31 1019.55 1019.79 1020.07 1020.27 1020.47 1020.67 1020.87 1020.99 1021.11 1021.23
1012.75 1012.67 1012.55 1012.43 1012.39 1012.35 1012.23 1012.27 1012.23 1012.27 1012.23 1012.27 1012.39 1012.59 1012.67 1012.67 1012.67 1012.75 1013.03 1013.23 1013.59 1014.03 1013.99 1013.95 1014.19 1014.43 1014.79 1015.03 1015.31 1015.55 1015.79 1016.11 1016.27 1016.43 1016.55 1016.99 1017.47 1017.71 1018.03 1018.39 1018.71 1019.07 1019.35 1019.59 1019.79 1019.99 1020.27 1020.51 1020.63 1020.79 1020.91 1021.11
1012.71 1012.63 1012.59 1012.51 1012.43 1012.35 1012.27 1012.19 1012.15 1012.19 1012.19 1012.11 1012.07 1012.15 1012.43 1012.47 1012.59 1012.51 1012.63 1012.87 1013.19 1013.63 1013.63 1013.71 1013.91 1014.11 1014.35 1014.63 1014.91 1015.19 1015.43 1015.71 1015.99 1016.27 1016.43 1016.83 1017.23 1017.59 1017.87 1018.15 1018.47 1018.83 1019.15 1019.43 1019.67 1019.79 1020.07 1020.31 1020.47 1020.67 1020.79 1020.95
1012.87 1012.71 1012.63 1012.55 1012.47 1012.35 1012.27 1012.11 1012.15 1012.11 1012.03 1012.03 1012.03 1011.99 1012.27 1012.43 1012.39 1012.39 1012.63 1012.75 1013.07 1013.19 1013.31 1013.47 1013.67 1013.83 1013.95 1014.19 1014.39 1014.75 1014.99 1015.19 1015.55 1015.79 1016.11 1016.51 1016.99 1017.35 1017.67 1017.95 1018.27 1018.59 1018.91 1019.23 1019.39 1019.63 1019.83 1020.11 1020.27 1020.47 1020.67 1020.83
1013.35 1012.99 1012.75 1012.55 1012.43 1012.31 1012.27 1012.19 1012.11 1012.11 1011.99 1011.95 1011.87 1011.83 1012.03 1012.31 1012.31 1012.31 1012.39 1012.51 1012.67 1012.83 1013.07 1013.31 1013.43 1013.63 1013.67 1013.87 1014.07 1014.23 1014.47 1014.75 1015.03 1015.31 1015.55 1015.91 1016.43 1016.91 1017.31 1017.63 1017.95 1018.27 1018.55 1018.95 1019.15 1019.39 1019.59 1019.83 1020.03 1020.19 1020.39 1020.59
1013.71 1013.43 1013.11 1012.87 1012.63 1012.47 1012.27 1012.19 1012.07 1012.03 1011.95 1011.91 1011.79 1011.75 1011.83 1012.03 1012.11 1012.15 1011.95 1012.11 1012.31 1012.51 1012.75 1012.99 1013.11 1013.35 1013.59 1013.67 1013.83 1013.95 1014.19 1014.43 1014.71 1014.95 1015.23 1015.63 1016.11 1016.51 1016.91 1017.27 1017.59 1017.95 1018.15 1018.59 1018.79 1019.07 1019.35 1019.51 1019.67 1019.83 1020.03 1020.23
1013.87 1013.63 1013.43 1013.11 1012.83 1012.55 1012.43 1012.31 1012.19 1012.07 1011.99 1011.83 1011.83 1011.67 1011.71 1011.71 1011.83 1011.87 1011.71 1011.71 1011.91 1012.15 1012.35 1012.63 1012.91 1013.15 1013.31 1013.47 1013.63 1013.79 1014.03 1014.27 1014.59 1014.87 1015.11 1015.47 1015.83 1016.19 1016.55 1016.87 1017.19 1017.63 1017.83 1018.15 1018.47 1018.67 1018.95 1019.11 1019.31 1019.47 1019.71 1019.91
1014.31 1013.79 1013.47 1013.31 1013.03 1012.75 1012.55 1012.31 1012.15 1012.03 1011.87 1011.79 1011.75 1011.63 1011.63 1011.71 1011.79 1011.75 1011.63 1011.55 1011.63 1011.75 1011.95 1012.15 1012.39 1012.71 1012.95 1013.15 1013.39 1013.67 1013.95 1014.15 1014.31 1014.51 1014.79 1015.11 1015.51 1015.79 1016.07 1016.39 1016.67 1017.15 1017.47 1017.59 1017.95 1018.27 1018.51 1018.67 1018.91 1019.11 1019.35 1019.55
1014.71 1014.31 1013.83 1013.35 1013.15 1013.03 1012.83 1012.55 1012.31 1012.07 1011.91 1011.67 1011.63 1011.55 1011.39 1011.47 1011.71 1011.75 1011.39 1011.47 1011.51 1011.51 1011.63 1011.71 1011.83 1012.15 1012.35 1012.71 1013.03 1013.39 1013.63 1013.83 1013.99 1014.15 1014.43 1014.75 1015.11 1015.39 1015.67 1015.91 1016.19 1016.59 1016.87 1017.03 1017.31 1017.67 1017.99 1018.27 1018.51 1018.79 1018.95 1019.15
1014.95 1014.59 1014.19 1013.79 1013.31 1012.99 1012.95 1012.75 1012.47 1012.19 1012.03 1011.87 1011.67 1011.39 1011.23 1011.15 1011.35 1011.47 1011.35 1011.31 1011.35 1011.35 1011.31 1011.35 1011.35 1011.51 1011.83 1012.23 1012.63 1012.95 1013.27 1013.51 1013.71 1013.83 1014.15 1014.39 1014.67 1014.99 1015.27 1015.47 1015.71 1016.07 1016.43 1016.59 1016.83 1017.15 1017.51 1017.83 1018.07 1018.35 1018.55 1018.75
1014.79 1014.59 1014.39 1014.03 1013.63 1013.15 1012.79 1012.59 1012.39 1012.23 1012.07 1011.91 1011.75 1011.55 1011.23 1011.07 1011.11 1010.99 1011.11 1011.19 1011.19 1011.15 1011.07 1011.03 1011.03 1011.03 1011.35 1011.71 1012.03 1012.43 1012.75 1013.07 1013.23 1013.51 1013.83 1014.03 1014.27 1014.43 1014.75 1014.99 1015.27 1015.63 1015.95 1016.23 1016.47 1016.83 1017.15 1017.47 1017.71 1017.95 1018.15 1018.39
1014.83 1014.47 1014.19 1014.03 1013.83 1013.47 1013.03 1012.59 1012.39 1012.27 1012.07 1011.91 1011.71 1011.63 1011.47 1011.19 1010.91 1010.71 1010.63 1010.79 1010.99 1010.87 1010.87 1010.83 1010.79 1010.79 1010.91 1011.27 1011.51 1011.87 1012.15 1012.47 1012.75 1013.03 1013.31 1013.55 1013.83 1013.99 1014.27 1014.55 1014.79 1015.11 1015.51 1015.79 1016.15 1016.47 1016.83 1017.15 1017.39 1017.63 1017.87 1018.07
1014.87 1014.55 1014.15 1013.83 1013.67 1013.47 1013.31 1013.07 1012.67 1012.47 1012.19 1011.95 1011.75 1011.55 1011.47 1011.47 1011.39 1011.07 1010.75 1010.71 1010.79 1010.75 1010.63 1010.67 1010.63 1010.63 1010.59 1010.87 1011.03 1011.23 1011.55 1011.95 1012.23 1012.47 1012.75 1013.03 1013.31 1013.59 1013.63 1013.87 1014.19 1014.55 1014.99 1015.51 1015.87 1016.19 1016.47 1016.83 1017.07 1017.39 1017.55 1017.79
1014.87 1014.63 1014.35 1014.03 1013.63 1013.27 1013.15 1013.07 1013.07 1012.91 1012.47 1012.03 1011.91 1011.75 1011.59 1011.47 1011.43 1011.27 1011.15 1010.87 1010.71 1010.67 1010.47 1010.31 1010.27 1010.39 1010.47 1010.59 1010.71 1010.75 1010.87 1011.19 1011.47 1011.75 1012.15 1012.47 1012.75 1013.15 1013.39 1013.59 1013.79 1014.19 1014.71 1015.27 1015.71 1016.07 1016.31 1016.59 1016.83 1017.11 1017.23 1017.47
1015.03 1014.75 1014.39 1014.15 1013.87 1013.51 1013.15 1012.95 1012.95 1012.91 1012.75 1012.47 1012.23 1011.99 1011.87 1011.67 1011.47 1011.39 1011.31 1011.15 1010.91 1010.63 1010.47 1010.23 1010.03 1009.95 1010.15 1010.31 1010.51 1010.43 1010.35 1010.55 1010.87 1011.23 1011.51 1011.83 1012.23 1012.59 1012.91 1013.15 1013.31 1013.67 1014.15 1014.83 1015.55 1015.91 1016.19 1016.51 1016.67 1016.91 1017.07 1017.27
1015.23 1014.99 1014.75 1014.47 1014.11 1013.63 1013.19 1012.83 1012.55 1012.59 1012.71 1012.79 1012.75 1012.67 1012.35 1011.95 1011.55 1011.31 1011.27 1011.23 1011.15 1010.95 1010.59 1010.31 1010.07 1009.87 1009.79 1009.79 1010.07 1010.31 1010.19 1010.39 1010.63 1010.91 1011.23 1011.47 1011.91 1012.19 1012.23 1012.47 1012.67 1013.07 1013.59 1014.35 1014.47 1015.35 1016.03 1016.31 1016.39 1016.59 1016.87 1017.03
1015.15 1015.03 1014.91 1014.71 1014.23 1013.75 1013.27 1012.75 1012.35 1012.15 1012.27 1012.51 1012.75 1012.71 1012.43 1012.07 1011.99 1011.87 1011.47 1011.23 1011.11 1011.15 1010.95 1010.75 1010.19 1009.79 1009.67 1009.63 1009.71 1010.15 1010.19 1010.11 1010.23 1010.39 1010.67 1010.91 1011.19 1011.75 1011.99 1012.11 1012.35 1012.55 1012.47 1013.03 1013.67 1014.15 1014.99 1015.43 1016.07 1016.07 1016.55 1016.59
1014.71 1014.67 1014.51 1014.51 1014.27 1013.91 1013.47 1012.87 1012.39 1011.95 1011.47 1011.83 1012.19 1012.43 1012.35 1012.19 1011.95 1011.79 1011.79 1011.71 1011.39 1010.91 1010.75 1010.75 1010.27 1009.71 1009.43 1009.39 1009.47 1009.63 1009.79 1009.95 1009.91 1010.11 1010.35 1010.55 1010.75 1010.95 1011.63 1011.75 1011.91 1012.07 1012.27 1012.27 1012.79 1014.03 1013.59 1013.47 1014.19 1014.55 1014.91 1015.79
1014.15 1013.91 1014.03 1014.07 1014.03 1013.95 1013.63 1013.11 1012.59 1012.03 1011.43 1010.99 1011.43 1011.71 1011.71 1011.83 1011.79 1011.67 1011.51 1011.39 1011.43 1011.31 1011.03 1010.71 1010.39 1010.15 1009.59 1009.15 1009.15 1009.47 1009.83 1009.87 1009.67 1009.79 1009.95 1010.15 1010.35 1010.39 1010.63 1011.19 1011.47 1011.91 1012.03 1011.91 1011.55 1011.83 1012.87 1013.47 1013.23 1012.59 1012.55 1014.99
1013.83 1013.67 1013.59 1013.35 1013.59 1013.79 1013.67 1013.47 1013.07 1012.59 1011.87 1011.43 1011.35 1011.31 1010.95 1010.99 1011.19 1011.19 1011.19 1011.11 1011.11 1011.15 1010.95 1010.63 1010.39 1010.23 1009.91 1009.47 1009.19 1009.19 1009.47 1009.63 1009.51 1009.47 1009.55 1009.63 1009.79 1009.99 1010.19 1010.47 1010.95 1011.59 1011.87 1011.83 1011.51 1011.23 1010.91 1010.79 1011.39 1011.91 1012.31 1014.07
1013.51 1013.35 1013.11 1013.23 1013.31 1013.39 1013.43 1013.23 1012.95 1012.59 1012.15 1011.87 1011.55 1011.27 1011.15 1010.99 1010.67 1010.55 1010.63 1010.63 1010.55 1010.63 1010.71 1010.67 1010.51 1010.27 1010.03 1009.83 1009.43 1009.35 1009.39 1009.31 1009.15 1009.19 1009.31 1009.43 1009.55 1009.55 1009.83 1010.07 1010.19 1010.63 1011.31 1011.95 1011.71 1011.27 1011.03 1010.95 1010.99 1011.39 1011.47 1012.91
Thickness
5597 5597 5597 5596 5597 5597 5595 5594 5593 5593 5592 5591 5590 5588 5587 5585 5584 5583 5582 5580 5580 5579 5579 5578 5578 5579 5580 5580 5581 5581 5581 5580 5579 5578 5577 5577 5576 5576 5576 5575 5572 5567 5566 5564 5561 5561 5560 5558 5559 5559 5562 5565
5592 5592 5591 5591 5591 5592 5591 5589 5589 5588 5588 5587 5586 5585 5583 5582 5580 5579 5577 5576 5575 5575 5575 5574 5574 5574 5575 5575 5576 5576 5576 5576 5575 5574 5573 5572 5572 5571 5571 5570 5567 5563 5562 5559 5555 5556 5554 5553 5554 5555 5557 5560
5589 5588 5586 5586 5586 5586 5585 5584 5583 5582 5582 5582 5581 5580 5578 5577 5576 5575 5574 5572 5571 5571 5571 5570 5569 5569 5570 5571 5571 5571 5571 5571 5570 5569 5567 5566 5566 5565 5565 5564 5562 5559 5557 5555 5552 5551 5550 5548 5548 5550 5552 5554
5587 5584 5582 5581 5580 5580 5580 5578 5577 5576 5575 5575 5575 5574 5572 5571 5570 5569 5568 5567 5566 5566 5566 5566 5565 5564 5565 5566 5565 5566 5565 5564 5563 5562 5561 5560 5560 5559 5559 5558 5557 5555 5552 5550 5548 5546 5545 5543 5543 5545 5548 5549
5584 5583 5579 5576 5575 5574 5574 5572 5570 5569 5568 5568 5568 5567 5566 5564 5564 5563 5562 5562 5561 5561 5560 5561 5560 5559 5560 5561 5560 5560 5560 5558 5557 5556 5555 5555 5554 5554 5553 5552 5551 5549 5546 5544 5543 5541 5539 5537 5538 5541 5542 5543
5578 5577 5575 5572 5571 5570 5569 5567 5565 5563 5562 5561 5561 5560 5559 5558 5558 5558 5558 5557 5557 5556 5556 5556 5556 5554 5554 5555 5555 5554 5553 5552 5552 5551 5550 5549 5548 5548 5547 5546 5544 5541 5539 5537 5536 5535 5532 5531 5534 5536 5536 5537
5571 5571 5570 5569 5567 5566 5565 5563 5561 5559 5557 5556 5555 5555 5554 5553 5553 5553 5553 5553 5552 5551 5551 5551 5550 5548 5548 5549 5550 5548 5547 5546 5546 5545 5544 5543 5542 5542 5540 5539 5537 5534 5532 5531 5530 5529 5526 5527 5529 5530 5530 5531
5565 5565 5565 5564 5563 5562 5561 5559 5558 5555 5553 5552 5551 5551 5549 5549 5549 5548 5549 5549 5547 5545 5546 5545 5543 5543 5542 5542 5543 5543 5542 5541 5539 5538 5538 5537 5536 5535 5535 5533 5531 5529 5527 5525 5525 5523 5522 5523 5524 5524 5525 5526
5560 5559 5558 5559 5557 5557 5557 5555 5553 5552 5550 5549 5547 5547 5546 5546 5545 5544 5545 5545 5542 5540 5541 5541 5538 5537 5537 5536 5536 5536 5536 5536 5534 5532 5532 5531 5531 5530 5529 5528 5526 5524 5522 5520 5519 5518 5518 5519 5519 5519 5520 5522
5552 5552 5552 5552 5552 5552 5552 5551 5549 5548 5547 5545 5544 5542 5543 5543 5541 5540 5540 5541 5540 5536 5537 5537 5534 5533 5533 5531 5531 5530 5530 5530 5529 5528 5527 5526 5525 5524 5524 5523 5520 5519 5518 5516 5515 5514 5515 5515 5514 5515 5515 5517
5545 5545 5545 5545 5545 5546 5545 5545 5544 5543 5543 5541 5539 5537 5537 5539 5538 5537 5536 5537 5535 5531 5532 5534 5531 5529 5529 5528 5526 5524 5523 5523 5523 5523 5523 5521 5519 5518 5517 5517 5515 5513 5512 5511 5510 5510 5510 5509 5509 5510 5510 5511
5539 5539 5539 5538 5537 5538 5538 5537 5537 5537 5536 5535 5535 5533 5532 5533 5533 5534 5533 5533 5531 5526 5527 5529 5528 5526 5525 5524 5522 5520 5518 5517 5516 5517 5517 5515 5513 5512 5511 5511 5509 5508 5507 5505 5505 5504 5504 5503 5504 5504 5505 5505
5532 5532 5531 5531 5531 5531 5531 5531 5530 5530 5530 5529 5529 5529 5527 5527 5527 5528 5527 5527 5525 5522 5523 5523 5523 5522 5521 5520 5518 5515 5514 5513 5511 5511 5511 5510 5508 5506 5505 5505 5504 5502 5501 5500 5499 5499 5498 5498 5498 5498 5499 5498
5524 5524 5524 5524 5524 5524 5524 5524 5523 5522 5523 5523 5522 5523 5521 5520 5521 5521 5520 5520 5519 5517 5518 5517 5517 5517 5516 5515 5514 5512 5511 5509 5508 5507 5506 5506 5503 5501 5500 5499 5498 5497 5496 5495 5494 5494 5493 5492 5492 5492 5492 5492
5514 5515 5516 5517 5517 5517 5517 5517 5517 5516 5516 5516 5516 5516 5515 5513 5513 5513 5514 5514 5513 5513 5511 5510 5510 5511 5510 5510 5509 5508 5507 5505 5504 5503 5502 5502 5499 5496 5495 5494 5492 5492 5490 5489 5488 5488 5487 5487 5487 5487 5487 5486
5504 5505 5506 5507 5509 5509 5509 5509 5509 5509 5509 5509 5509 5509 5509 5508 5507 5507 5509 5509 5507 5507 5506 5505 5504 5504 5504 5504 5504 5503 5501 5500 5498 5497 5497 5496 5494 5492 5490 5489 5488 5486 5485 5484 5483 5483 5482 5482 5482 5481 5481 5481
5494 5496 5496 5498 5499 5500 5501 5501 5502 5502 5502 5502 5502 5502 5502 5502 5502 5501 5502 5503 5502 5501 5501 5499 5498 5498 5498 5497 5497 5496 5494 5493 5493 5492 5492 5491 5489 5488 5486 5484 5483 5481 5480 5480 5478 5478 5477 5476 5477 5476 5477 5476
5483 5485 5487 5488 5489 5490 5492 5493 5494 5494 5495 5494 5495 5495 5495 5495 5494 5494 5495 5496 5496 5496 5496 5494 5494 5494 5493 5492 5491 5490 5487 5486 5487 5487 5487 5487 5485 5483 5482 5480 5480 5478 5475 5475 5475 5473 5472 5472 5472 5472 5472 5471
5471 5473 5475 5477 5479 5480 5481 5483 5484 5485 5486 5487 5487 5487 5489 5489 5487 5488 5489 5489 5489 5489 5490 5490 5490 5490 5489 5488 5486 5484 5483 5481 5481 5482 5482 5482 5480 5478 5478 5476 5475 5474 5472 5471 5472 5470 5468 5467 5467 5466 5466 5466
5461 5462 5464 5466 5468 5469 5470 5472 5474 5476 5477 5478 5479 5480 5482 5482 5481 5481 5481 5481 5482 5482 5485 5485 5485 5486 5485 5483 5481 5480 5477 5476 5476 5477 5476 5477 5476 5474 5473 5472 5471 5470 5468 5466 5467 5466 5463 5462 5461 5461 5460 5460
5450 5451 5452 5454 5456 5458 5461 5462 5464 5465 5467 5468 5469 5470 5473 5475 5475 5476 5476 5475 5475 5476 5478 5480 5480 5481 5480 5478 5478 5476 5473 5472 5472 5472 5471 5472 5472 5471 5469 5468 5467 5465 5463 5461 5460 5460 5459 5457 5456 5456 5456 5455
5439 5440 5442 5443 5443 5446 5448 5451 5453 5454 5456 5458 5460 5461 5463 5465 5466 5469 5470 5469 5468 5469 5471 5473 5474 5475 5474 5474 5474 5472 5469 5469 5467 5467 5468 5469 5468 5467 5466 5464 5463 5462 5459 5457 5455 5455 5455 5453 5452 5451 5451 5451
5427 5428 5430 5432 5433 5434 5435 5437 5440 5441 5444 5446 5449 5451 5452 5453 5455 5457 5460 5461 5460 5461 5464 5466 5466 5468 5468 5469 5470 5468 5466 5465 5464 5464 5464 5464 5464 5462 5461 5460 5460 5458 5455 5452 5450 5450 5449 5447 5447 5446 5445 5445
5416 5416 5417 5419 5421 5423 5424 5425 5426 5427 5431 5434 5437 5439 5441 5442 5444 5446 5448 5451 5452 5453 5456 5458 5460 5461 5460 5461 5464 5464 5463 5463 5463 5461 5461 5461 5459 5457 5456 5455 5456 5454 5451 5448 5445 5443 5442 5441 5440 5439 5439 5439
5402 5403 5404 5406 5408 5410 5412 5414 5415 5416 5417 5420 5423 5425 5428 5431 5433 5435 5437 5438 5441 5444 5447 5450 5452 5454 5454 5455 5457 5459 5460 5460 5458 5456 5456 5456 5454 5454 5452 5451 5451 5451 5448 5444 5440 5436 5435 5434 5433 5433 5433 5433
5387 5388 5389 5391 5394 5396 5400 5403 5404 5405 5405 5406 5409 5411 5414 5419 5421 5424 5427 5428 5430 5433 5436 5439 5443 5445 5447 5449 5450 5452 5452 5453 5452 5451 5450 5450 5449 5449 5448 5448 5447 5448 5446 5442 5440 5435 5429 5427 5428 5428 5428 5429
5374 5374 5374 5375 5379 5382 5386 5390 5393 5395 5396 5395 5396 5398 5401 5406 5410 5412 5415 5418 5421 5424 5426 5429 5433 5437 5440 5442 5443 5444 5445 5446 5446 5446 5446 5446 5445 5443 5442 5442 5442 5444 5445 5443 5438 5432 5428 5429 5427 5425 5426 5427
5361 5362 5361 5361 5364 5368 5371 5377 5381 5385 5388 5387 5386 5388 5391 5394 5398 5401 5404 5407 5409 5414 5417 5419 5423 5428 5432 5434 5436 5437 5437 5438 5439 5440 5440 5440 5440 5439 5437 5437 5438 5439 5440 5440 5437 5432 5431 5432 5429 5431 5433 5427
5346 5348 5350 5350 5351 5353 5356 5362 5367 5371 5376 5378 5379 5380 5383 5385 5387 5391 5395 5397 5399 5402 5407 5411 5414 5417 5423 5426 5428 5430 5430 5430 5433 5433 5434 5434 5434 5434 5434 5434 5432 5432 5433 5436 5437 5435 5433 5431 5431 5438 5437 5426
5330 5332 5335 5337 5337 5339 5342 5345 5350 5355 5360 5365 5367 5370 5374 5376 5379 5382 5386 5388 5390 5393 5395 5400 5404 5407 5412 5416 5418 5421 5421 5422 5425 5427 5428 5429 5429 5429 5430 5428 5426 5427 5427 5428 5430 5433 5436 5435 5436 5438 5433 5425
5315 5316 5318 5319 5320 5325 5327 5330 5335 5339 5344 5349 5353 5356 5361 5365 5369 5373 5377 5380 5383 5385 5387 5390 5393 5397 5400 5404 5407 5411 5412 5415 5418 5420 5422 5422 5422 5423 5423 5423 5423 5424 5422 5420 5422 5426 5429 5432 5432 5431 5430 5427